Location: Caltech
(34.1382°N, 118.1253°W)
Time: 02:44:34
(UTC-07:00)

ARGOS - Visible Passes

Search period start: 31 March 2015 00:00
Search period end: 10 April 2015 00:00
Orbit: 820 x 835 km, 98.7° (Epoch: 30 March)

Date Brightness Start Highest point End Pass type
(mag) Time Alt. Az. Time Alt. Az. Time Alt. Az.
31 Mar 5.2 22:29:45 21° N 22:29:45 21° N 22:31:24 10° N visible
01 Apr 5.0 22:10:56 22° N 22:10:56 22° N 22:12:49 10° N visible
02 Apr 5.0 21:52:08 21° NNE 21:52:08 21° NNE 21:54:04 10° N visible
02 Apr 6.1 23:33:39 11° NW 23:33:39 11° NW 23:33:46 10° NW visible
03 Apr 5.0 21:33:19 18° NNE 21:33:19 18° NNE 21:35:07 10° NNE visible
03 Apr 5.8 23:14:50 15° NW 23:14:50 15° NW 23:15:50 10° NNW visible
04 Apr 5.2 21:14:30 14° NE 21:14:30 14° NE 21:15:49 10° NNE visible
04 Apr 5.4 22:56:01 20° NNW 22:56:01 20° NNW 22:57:39 10° NNW visible
05 Apr 5.1 22:37:13 24° NNW 22:37:13 24° NNW 22:39:17 10° NNW visible
06 Apr 4.8 22:18:24 26° N 22:18:24 26° N 22:20:45 10° N visible
07 Apr 4.7 21:59:36 25° NNE 21:59:36 25° NNE 22:02:04 10° N visible
07 Apr 6.0 23:41:07 11° NW 23:41:07 11° NW 23:41:18 10° NW visible
08 Apr 4.8 21:40:47 22° NNE 21:40:47 22° NNE 21:43:13 10° NNE visible
08 Apr 5.7 23:22:18 16° NW 23:22:18 16° NW 23:23:31 10° NW visible
09 Apr 5.0 21:21:59 17° NE 21:21:59 17° NE 21:24:06 10° NNE visible
09 Apr 5.3 23:03:30 22° NW 23:03:30 22° NW 23:05:25 10° NNW visible
